Location: Minneapolis
(44.9800°N, 93.2640°W)
Time: 17:16:49
(UTC-05:00)

Iridium 96 - Visible Passes

Search period start: 27 August 2016 00:00
Search period end: 06 September 2016 00:00
Orbit: 775 x 780 km, 86.4° (Epoch: 27 August)

Date Brightness Start Highest point End Pass type
(mag) Time Alt. Az. Time Alt. Az. Time Alt. Az.
27 Aug 8.5 21:23:12 10° NW 21:26:09 15° WNW 21:29:05 10° WSW visible
28 Aug 7.9 20:48:40 10° NNW 20:52:57 27° W 20:57:15 10° SW visible
29 Aug 6.8 20:14:39 10° NNW 20:19:38 46° W 20:24:36 10° SSW visible
30 Aug 9.0 21:25:01 10° WNW 21:26:00 11° WNW 21:26:59 10° W visible
31 Aug 8.5 20:49:17 10° NW 20:52:53 19° WNW 20:56:28 10° WSW visible
01 Sep 7.6 20:15:00 10° NNW 20:19:38 33° W 20:24:15 10° SW visible
03 Sep 8.8 20:50:17 10° NW 20:52:46 14° WNW 20:55:14 10° WSW visible
04 Sep 8.3 20:15:30 10° NNW 20:19:36 24° W 20:23:41 10° SW visible
05 Sep 9.3 05:56:39 10° E 05:58:07 11° ENE 05:59:35 10° ENE visible
